Location: Appletree Creek
(38.7363°N, 122.6833°W)
Time: 17:34:07
(UTC+00:00)

Cosmos 1862 Rocket - Pass Details

Date: 18 September 2020
Orbit: 603 x 634 km, 82.5° (Epoch: 19 October)

Event Time Altitude Azimuth Distance (km) Brightness Sun altitude
Rises 13:20:16 0° 193° (SSW) 2,893 6.8 -7.7°
Reaches altitude 10° 13:22:31 10° 197° (SSW) 1,986 5.9 -7.2°
Maximum altitude 13:26:53 64° 278° (W) 687 3.6 -6.4°
Drops below altitude 10° 13:31:14 10° 1° (N) 1,981 6.3 -5.5°
Sets 13:33:29 0° 4° (N) 2,886 7.1 -5.1°
